CW1490 Weather Reports


time (UTC)temp
F
wind
direction
speed
knots
gust
knots
rain 1hr
in
rain 24hr
in
rain mn
in
humidity
%
barometer
mb
20260508234010 51 34 1.7 3.5 0.00 0.00 0.00 54 1011.2
20260508233506 51 282 1.7 3.5 0.00 0.00 0.00 56 1011.1
20260508233024 52 168 0.9 5.2 0.00 0.00 0.00 54 1011.1
20260508232509 52 17 0.9 5.2 0.00 0.00 0.00 56 1011.1
20260508232007 52 24 0.9 7.0 0.00 0.00 0.00 58 1011.0
20260508231526 52 170 1.7 7.0 0.00 0.00 0.00 56 1011.0
20260508231009 52 225 1.7 8.7 0.00 0.00 0.00 57 1010.9
20260508230504 52 51 1.7 8.7 0.00 0.00 0.00 55 1011.0
20260508230011 51 311 1.7 7.8 0.00 0.00 0.00 57 1010.9
20260508225508 51 291 0.9 7.8 0.00 0.00 0.00 59 1010.9
20260508225005 51 30 3.5 9.6 0.00 0.00 0.00 58 1010.8
20260508224514 51 340 4.3 10.4 0.00 0.00 0.00 57 1010.9
20260508224006 51 339 0.9 10.4 0.00 0.00 0.00 59 1010.8
20260508223512 51 340 2.6 11.3 0.00 0.00 0.00 58 1010.8
20260508223020 51 22 3.5 11.3 0.00 0.00 0.00 58 1010.8
20260508222507 51 26 3.5 7.8 0.00 0.00 0.00 57 1010.7
20260508222010 52 13 3.5 9.6 0.00 0.00 0.00 57 1010.6
20260508221523 52 13 5.2 9.6 0.00 0.00 0.00 55 1010.6
20260508221009 52 319 5.2 13.0 0.00 0.00 0.00 57 1010.7
20260508220509 52 41 6.1 13.0 0.00 0.00 0.00 57 1010.6
20260508220025 52 330 5.2 10.4 0.00 0.00 0.00 57 1010.6
20260508215510 52 28 4.3 11.3 0.00 0.00 0.00 60 1010.6
20260508215007 52 31 4.3 13.0 0.00 0.00 0.00 62 1010.7
20260508214512 52 45 6.1 13.0 0.00 0.00 0.00 61 1010.6
20260508214005 51 38 6.1 10.4 0.00 0.00 0.00 62 1010.6
20260508213511 52 42 6.1 15.6 0.00 0.00 0.00 63 1010.6
20260508213019 51 50 6.1 15.6 0.00 0.00 0.00 59 1010.6
20260508212509 51 336 8.7 15.6 0.00 0.00 0.00 58 1010.6
20260508212010 52 344 5.2 20.0 0.00 0.00 0.00 56 1010.5
20260508211527 54 324 10.4 20.0 0.00 0.00 0.00 49 1010.3
20260508211009 55 333 8.7 15.6 0.00 0.00 0.00 45 1010.2
20260508210509 55 24 1.7 8.7 0.00 0.00 0.00 43 1009.9
20260508210027 56 205 4.3 12.2 0.00 0.00 0.00 41 1009.9
20260508205510 56 247 2.6 13.9 0.00 0.00 0.00 40 1009.9
20260508205011 56 277 6.1 13.9 0.00 0.00 0.00 39 1009.7
20260508204530 57 221 7.0 18.2 0.00 0.00 0.00 43 1009.6
20260508204010 57 334 3.5 18.2 0.00 0.00 0.00 40 1009.6
20260508203505 57 223 7.0 17.4 0.00 0.00 0.00 40 1009.6
20260508203017 57 240 3.5 15.6 0.00 0.00 0.00 42 1009.7
20260508202505 57 254 7.0 15.6 0.00 0.00 0.00 40 1009.8
20260508202006 58 257 7.0 14.8 0.00 0.00 0.00 40 1009.7
20260508201518 58 139 2.6 14.8 0.00 0.00 0.00 39 1009.7
20260508201009 58 234 3.5 12.2 0.00 0.00 0.00 45 1009.6
20260508200510 57 254 4.3 12.2 0.00 0.00 0.00 46 1009.6
20260508200030 57 213 4.3 13.9 0.00 0.00 0.00 43 1009.5
20260508195509 57 344 5.2 14.8 0.00 0.00 0.00 41 1009.7
20260508195011 57 347 6.1 14.8 0.00 0.00 0.00 41 1009.7
20260508194527 57 237 4.3 13.9 0.00 0.00 0.00 45 1009.9
20260508194003 57 280 4.3 13.9 0.00 0.00 0.00 45 1009.8
20260508193503 57 270 6.1 17.4 0.00 0.00 0.00 45 1009.8
20260508193028 58 250 8.7 17.4 0.00 0.00 0.00 41 1009.8
20260508192509 58 234 4.3 16.5 0.00 0.00 0.00 49 1009.7
20260508192010 57 277 9.6 16.5 0.00 0.00 0.00 44 1009.8
20260508191517 57 202 9.6 16.5 0.00 0.00 0.00 40 1009.7
20260508191008 58 236 8.7 18.2 0.00 0.00 0.00 40 1009.7
20260508190506 58 284 7.0 18.2 0.00 0.00 0.00 41 1009.9
20260508190004 59 282 5.2 21.7 0.00 0.00 0.00 39 1009.7
20260508185503 58 309 4.3 21.7 0.00 0.00 0.00 43 1009.7
20260508185003 57 229 4.3 13.9 0.00 0.00 0.00 46 1009.8
20260508184504 56 227 8.7 13.9 0.00 0.00 0.00 42 1009.8
20260508184003 56 225 6.1 13.9 0.00 0.00 0.00 42 1009.9
20260508183503 57 273 6.1 14.8 0.00 0.00 0.00 40 1009.9
20260508183026 57 344 4.3 14.8 0.00 0.00 0.00 41 1009.8
20260508182503 56 225 3.5 12.2 0.00 0.00 0.00 43 1009.9
20260508182003 57 219 8.7 12.2 0.00 0.00 0.00 43 1009.9
20260508181516 57 269 3.5 15.6 0.00 0.00 0.00 41 1009.9
20260508181009 55 314 3.5 15.6 0.00 0.00 0.00 43 1009.9
20260508180507 55 344 2.6 24.3 0.00 0.00 0.00 42 1010.0
20260508180023 56 273 6.1 24.3 0.00 0.00 0.00 42 1010.0
20260508175507 57 211 7.0 16.5 0.00 0.00 0.00 44 1010.0
20260508175012 56 265 5.2 16.5 0.00 0.00 0.00 44 1010.0
20260508174510 55 231 3.5 16.5 0.00 0.00 0.00 44 1009.9
20260508174003 57 242 7.8 20.0 0.00 0.00 0.00 39 1009.8
20260508173504 57 236 7.0 20.0 0.00 0.00 0.00 42 1010.0
20260508173011 56 291 8.7 20.0 0.00 0.00 0.00 44 1009.9
20260508172506 56 248 2.6 14.8 0.00 0.00 0.00 38 1010.1
20260508172003 56 329 4.3 14.8 0.00 0.00 0.00 43 1010.0
20260508171511 55 17 6.1 13.9 0.00 0.00 0.00 41 1010.1
20260508171004 55 317 5.2 13.9 0.00 0.00 0.00 41 1010.1
20260508170504 55 232 7.8 13.9 0.00 0.00 0.00 40 1010.0
20260508170018 55 250 4.3 12.2 0.00 0.00 0.00 45 1010.0
20260508165506 55 269 4.3 10.4 0.00 0.00 0.00 39 1010.0
20260508165009 56 86 3.5 13.0 0.00 0.00 0.00 41 1010.0
20260508164522 55 215 6.1 13.0 0.00 0.00 0.00 44 1009.9
20260508164007 55 234 3.5 12.2 0.00 0.00 0.00 41 1009.9
20260508163507 54 310 2.6 9.6 0.00 0.00 0.00 42 1010.1
20260508163039 54 305 3.5 9.6 0.00 0.00 0.00 40 1010.1
20260508162504 54 312 2.6 9.6 0.00 0.00 0.00 41 1010.1
20260508162006 54 288 2.6 8.7 0.00 0.00 0.00 40 1010.1
20260508161512 54 202 3.5 8.7 0.00 0.00 0.00 39 1010.0
20260508161005 54 309 3.5 12.2 0.00 0.00 0.00 39 1010.1
20260508160504 54 51 4.3 14.8 0.00 0.00 0.00 42 1010.1
20260508160016 55 247 4.3 14.8 0.00 0.00 0.00 40 1010.1
20260508155505 55 295 5.2 10.4 0.00 0.00 0.00 37 1010.1
20260508155011 54 20 2.6 7.0 0.00 0.00 0.00 47 1010.1
20260508154519 54 178 2.6 12.2 0.00 0.00 0.00 40 1010.1
20260508154015 55 277 7.0 12.2 0.00 0.00 0.00 40 1010.2
20260508153509 54 225 3.5 13.0 0.00 0.00 0.00 45 1010.2
20260508153029 55 265 5.2 13.9 0.00 0.00 0.00 37 1010.1
20260508152508 56 245 6.1 13.9 0.00 0.00 0.00 44 1009.9
20260508152009 56 229 5.2 18.2 0.00 0.00 0.00 40 1010.0
20260508151531 56 234 8.7 18.2 0.00 0.00 0.00 37 1009.9
20260508151006 55 238 6.1 13.0 0.00 0.00 0.00 41 1009.8
20260508150503 55 153 1.7 13.0 0.00 0.00 0.00 43 1009.8
20260508150012 55 281 2.6 13.0 0.00 0.00 0.00 43 1009.9
20260508145507 55 267 4.3 14.8 0.00 0.00 0.00 34 1010.0
20260508145009 56 321 8.7 14.8 0.00 0.00 0.00 42 1009.9
20260508144519 55 279 7.0 13.0 0.00 0.00 0.00 41 1009.9
20260508144008 55 280 7.0 16.5 0.00 0.00 0.00 40 1010.1
20260508143510 55 225 6.1 16.5 0.00 0.00 0.00 39 1010.1
20260508143019 55 218 7.8 14.8 0.00 0.00 0.00 42 1010.0
20260508142506 55 248 5.2 12.2 0.00 0.00 0.00 46 1010.0
20260508142009 55 244 3.5 14.8 0.00 0.00 0.00 46 1010.0
20260508141526 54 282 5.2 14.8 0.00 0.00 0.00 42 1010.1
20260508141010 53 340 3.5 12.2 0.00 0.00 0.00 45 1010.3
20260508140516 53 257 3.5 14.8 0.00 0.00 0.00 46 1010.2
20260508140030 52 270 1.7 14.8 0.00 0.00 0.00 46 1010.3
20260508135512 53 225 3.5 10.4 0.00 0.00 0.00 50 1010.4
20260508135007 52 212 4.3 7.8 0.00 0.00 0.00 53 1010.5
20260508134523 53 293 1.7 7.0 0.00 0.00 0.00 50 1010.6
20260508134005 51 76 2.6 7.8 0.00 0.00 0.00 51 1010.7
20260508133509 50 265 2.6 8.7 0.00 0.00 0.00 52 1010.8
20260508133030 50 325 1.7 8.7 0.00 0.00 0.00 54 1010.9
20260508132507 49 298 0.9 7.8 0.00 0.00 0.00 60 1010.9
20260508132007 50 334 2.6 7.8 0.00 0.00 0.00 53 1010.9
20260508131523 50 293 2.6 9.6 0.00 0.00 0.00 64 1010.9
20260508131007 50 328 3.5 9.6 0.00 0.00 0.00 55 1011.0
20260508130511 51 340 1.7 11.3 0.00 0.00 0.00 58 1010.9
20260508130024 50 261 4.3 11.3 0.00 0.00 0.00 55 1010.9
20260508125511 49 51 0.9 7.8 0.00 0.00 0.00 60 1011.0
20260508125011 49 259 1.7 8.7 0.00 0.00 0.00 57 1011.0
20260508124528 48 265 3.5 8.7 0.00 0.00 0.00 60 1011.0
20260508124012 47 244 3.5 8.7 0.00 0.00 0.00 64 1011.1
20260508123503 45 225 1.7 7.0 0.00 0.00 0.00 64 1011.1
20260508123016 44 221 2.6 9.6 0.00 0.00 0.00 67 1011.1
20260508122506 44 175 1.7 9.6 0.00 0.00 0.00 66 1011.1
20260508122011 44 212 2.6 8.7 0.00 0.00 0.00 69 1011.1
20260508121520 43 167 4.3 7.8 0.00 0.00 0.00 71 1011.0
20260508121012 43 194 3.5 11.3 0.00 0.00 0.00 74 1011.0
20260508120508 43 198 6.1 11.3 0.00 0.00 0.00 73 1010.9
20260508120024 42 183 4.3 8.7 0.00 0.00 0.00 77 1011.0
20260508115515 42 153 4.3 7.0 0.00 0.00 0.00 77 1011.1
20260508115011 42 201 4.3 8.7 0.00 0.00 0.00 79 1011.0
20260508114524 41 190 3.5 8.7 0.00 0.00 0.00 79 1011.0
20260508114014 42 196 4.3 8.7 0.00 0.00 0.00 78 1011.0
20260508113510 42 200 5.2 8.7 0.00 0.00 0.00 78 1011.0
20260508113026 42 212 3.5 7.0 0.00 0.00 0.00 80 1011.0
20260508112512 41 178 3.5 7.0 0.00 0.00 0.00 82 1010.9
20260508112009 41 157 4.3 7.0 0.00 0.00 0.00 84 1010.8
20260508111520 40 163 4.3 6.1 0.00 0.00 0.00 86 1010.8
20260508111011 39 175 3.5 7.0 0.00 0.00 0.00 87 1010.7
20260508110507 38 182 3.5 7.8 0.00 0.00 0.00 89 1010.7
20260508110029 37 236 2.6 7.8 0.00 0.00 0.00 89 1010.7
20260508105510 37 183 4.3 7.0 0.00 0.00 0.00 90 1010.6
20260508105009 36 202 4.3 7.0 0.00 0.00 0.00 90 1010.7
20260508104524 36 186 3.5 6.1 0.00 0.00 0.00 90 1010.7
20260508104002 36 212 1.7 6.1 0.00 0.00 0.00 90 1010.7
20260508103503 36 207 3.5 6.1 0.00 0.00 0.00 91 1010.7
20260508103003 35 221 3.5 6.1 0.00 0.00 0.00 91 1010.6
20260508102501 35 196 2.6 5.2 0.00 0.00 0.00 91 1010.4
20260508102003 35 207 2.6 4.3 0.00 0.00 0.00 91 1010.4
20260508101513 35 212 0.9 4.3 0.00 0.00 0.00 91 1010.3
20260508101002 34 205 1.7 4.3 0.00 0.00 0.00 91 1010.3
20260508100502 34 184 2.6 6.1 0.00 0.00 0.00 91 1010.3
20260508100005 34 224 3.5 7.8 0.00 0.00 0.00 91 1010.3
20260508095503 34 210 4.3 7.8 0.00 0.00 0.00 91 1010.4
20260508095003 34 200 4.3 7.8 0.00 0.00 0.00 91 1010.3
20260508094502 33 216 3.5 5.2 0.00 0.00 0.00 91 1010.3
20260508094002 33 221 2.6 4.3 0.00 0.00 0.00 91 1010.3
20260508093502 33 218 1.7 4.3 0.00 0.00 0.00 91 1010.3
20260508093013 33 243 2.6 4.3 0.00 0.00 0.00 91 1010.2
20260508092501 33 246 1.7 4.3 0.00 0.00 0.00 91 1010.3
20260508092002 33 247 0.9 2.6 0.00 0.00 0.00 91 1010.2
20260508091503 33 265 0.9 2.6 0.00 0.00 0.00 91 1010.2
20260508091006 34 232 1.7 2.6 0.00 0.00 0.00 91 1010.2
20260508090504 34 238 0.9 2.6 0.00 0.00 0.00 91 1010.2
20260508090011 33 238 1.7 2.6 0.00 0.00 0.00 91 1010.2
20260508085503 33 215 1.7 2.6 0.00 0.00 0.00 91 1010.2
20260508085003 33 254 1.7 2.6 0.00 0.00 0.00 91 1010.1
20260508084504 33 247 0.9 1.7 0.00 0.00 0.00 91 1010.0
20260508084003 33 137 0.0 0.9 0.00 0.00 0.00 91 1009.9
20260508083502 33 146 0.0 0.9 0.00 0.00 0.00 91 1009.9
20260508083002 33 51 0.0 1.7 0.00 0.00 0.00 91 1009.8
20260508082502 33 178 0.0 1.7 0.00 0.00 0.00 91 1009.7
20260508082002 34 221 0.0 2.6 0.00 0.00 0.00 91 1009.8
20260508081504 34 254 0.9 2.6 0.00 0.00 0.00 91 1009.8
20260508081003 33 265 0.9 2.6 0.00 0.00 0.00 91 1009.8
20260508080505 33 265 0.9 2.6 0.00 0.00 0.00 91 1009.9
20260508080004 33 232 0.9 2.6 0.00 0.00 0.00 91 1009.9
20260508075507 33 232 0.9 2.6 0.00 0.00 0.00 91 1010.0
20260508075003 33 265 0.0 3.5 0.00 0.00 0.00 91 1009.8
20260508074512 33 221 1.7 3.5 0.00 0.00 0.00 91 1009.7
20260508074003 33 212 1.7 2.6 0.00 0.00 0.00 90 1009.7
20260508073507 33 196 0.9 2.6 0.00 0.00 0.00 91 1009.6
20260508073006 33 234 0.9 2.6 0.00 0.00 0.00 91 1009.5
20260508072502 33 254 0.9 2.6 0.00 0.00 0.00 90 1009.4
20260508072003 33 291 0.9 2.6 0.00 0.00 0.00 90 1009.3
20260508071505 33 265 0.9 2.6 0.00 0.00 0.00 90 1009.2
20260508071002 33 247 0.9 1.7 0.00 0.00 0.00 90 1009.2
20260508070503 33 221 0.0 1.7 0.00 0.00 0.00 90 1009.2
20260508070005 33 93 0.0 1.7 0.00 0.00 0.00 90 1009.2
20260508065503 34 265 0.0 1.7 0.00 0.00 0.00 89 1009.3
20260508065004 33 221 0.0 1.7 0.00 0.00 0.00 89 1009.2
20260508064511 33 9 0.9 1.7 0.00 0.00 0.00 89 1009.1
20260508064003 34 334 0.9 1.7 0.00 0.00 0.00 89 1009.1
20260508063506 34 265 0.9 1.7 0.00 0.00 0.00 89 1009.2
20260508063005 34 309 0.0 0.9 0.00 0.00 0.00 89 1009.1
20260508062503 34 205 0.0 1.7 0.00 0.00 0.00 89 1009.2
20260508062003 34 178 0.0 1.7 0.00 0.00 0.00 89 1009.2
20260508061507 34 265 0.9 1.7 0.00 0.00 0.00 88 1009.2
20260508061006 35 51 0.9 2.6 0.00 0.00 0.00 88 1009.2
20260508060502 35 291 0.9 2.6 0.00 0.00 0.00 88 1009.2
20260508060004 35 236 1.7 2.6 0.00 0.00 0.00 88 1009.2
20260508055504 35 200 0.9 2.6 0.00 0.00 0.00 88 1009.3
20260508055006 35 217 1.7 2.6 0.00 0.00 0.00 87 1009.3
20260508054509 35 234 1.7 2.6 0.00 0.00 0.00 87 1009.3
20260508054003 36 221 0.9 2.6 0.00 0.00 0.00 87 1009.3
20260508053504 36 247 0.9 2.6 0.00 0.00 0.00 87 1009.3
20260508053007 36 255 1.7 2.6 0.00 0.00 0.00 87 1009.2
20260508052504 36 265 0.9 1.7 0.00 0.00 0.00 87 1009.3
20260508052004 36 238 0.9 1.7 0.00 0.00 0.00 87 1009.3
20260508051509 36 232 0.0 0.9 0.00 0.00 0.00 86 1009.4
20260508051003 36 221 0.0 0.9 0.00 0.00 0.00 86 1009.4
20260508050503 36 93 0.0 1.7 0.00 0.00 0.00 86 1009.5
20260508050006 37 309 0.0 1.7 0.00 0.00 0.00 86 1009.6
20260508045502 36 291 0.9 1.7 0.00 0.00 0.00 86 1009.5
20260508045002 37 9 0.0 1.7 0.00 0.00 0.00 85 1009.5
20260508044514 37 309 0.0 2.6 0.00 0.00 0.00 85 1009.6
20260508044004 37 238 0.9 3.5 0.00 0.00 0.00 85 1009.6
20260508043505 37 238 1.7 3.5 0.00 0.00 0.00 85 1009.7
20260508043007 37 234 2.6 3.5 0.00 0.00 0.00 85 1009.7
20260508042507 37 227 0.9 2.6 0.00 0.00 0.00 85 1009.7
20260508042006 37 190 0.9 2.6 0.00 0.00 0.00 85 1009.7
20260508041509 38 205 0.0 2.6 0.00 0.00 0.00 84 1009.7
20260508041004 38 205 0.9 2.6 0.00 0.00 0.00 84 1009.8
20260508040507 37 221 0.0 1.7 0.00 0.00 0.00 82 1009.7
20260508040013 38 265 0.9 1.7 0.00 0.00 0.00 83 1009.7
20260508035505 38 265 0.0 2.6 0.00 0.00 0.00 82 1009.7
20260508035003 38 265 0.9 2.6 0.00 0.00 0.00 82 1009.7
20260508034517 38 255 0.9 2.6 0.00 0.00 0.00 82 1009.7
20260508034004 38 238 0.9 2.6 0.00 0.00 0.00 81 1009.7
20260508033504 38 243 0.0 1.7 0.00 0.00 0.00 82 1009.7
20260508033018 39 238 0.0 1.7 0.00 0.00 0.00 82 1009.7
20260508032504 39 221 0.9 1.7 0.00 0.00 0.00 82 1009.7
20260508032006 39 221 0.9 1.7 0.00 0.00 0.00 81 1009.7
20260508031512 39 212 0.0 1.7 0.00 0.00 0.00 82 1009.7
20260508031002 40 205 0.0 1.7 0.00 0.00 0.00 81 1009.6
20260508030503 40 238 0.0 1.7 0.00 0.00 0.00 80 1009.6
20260508030014 40 205 0.9 2.6 0.00 0.00 0.00 79 1009.6
20260508025506 40 200 0.9 2.6 0.00 0.00 0.00 79 1009.5
20260508025003 40 212 0.0 2.6 0.00 0.00 0.00 79 1009.6
20260508024518 40 255 0.9 2.6 0.00 0.00 0.00 79 1009.6
20260508024003 40 275 0.9 2.6 0.00 0.00 0.00 78 1009.5
20260508023506 40 250 0.9 3.5 0.00 0.00 0.00 78 1009.5
20260508023027 41 9 0.0 5.2 0.00 0.00 0.00 77 1009.6
20260508022504 41 51 0.9 5.2 0.00 0.00 0.00 77 1009.5
20260508022007 41 24 1.7 5.2 0.00 0.00 0.00 76 1009.5
20260508021516 42 38 0.9 5.2 0.00 0.00 0.00 76 1009.4
20260508021006 42 232 1.7 4.3 0.00 0.00 0.00 77 1009.3
20260508020505 42 247 0.9 2.6 0.00 0.01 0.00 75 1009.4
20260508020017 42 9 0.0 1.7 0.00 0.02 0.00 74 1009.3
20260508015503 42 265 0.0 4.3 0.00 0.02 0.00 72 1009.2
20260508015003 43 309 0.9 4.3 0.00 0.03 0.00 70 1009.1
20260508014515 44 232 2.6 4.3 0.00 0.03 0.00 71 1009.0
20260508014007 44 241 1.7 4.3 0.00 0.03 0.00 70 1009.0
20260508013508 44 238 2.6 3.5 0.00 0.03 0.00 69 1008.9
20260508013020 45 265 1.7 3.5 0.00 0.03 0.00 69 1008.8
20260508012506 45 250 2.6 4.3 0.00 0.03 0.00 69 1008.6
20260508012004 46 247 1.7 4.3 0.00 0.03 0.00 70 1008.6
20260508011510 46 238 0.9 3.5 0.00 0.03 0.00 67 1008.5
20260508011005 46 214 1.7 3.5 0.00 0.03 0.00 68 1008.5
20260508010503 46 205 0.9 3.5 0.00 0.03 0.00 66 1008.6
20260508010027 47 221 1.7 3.5 0.00 0.03 0.00 66 1008.5
20260508005506 47 227 1.7 3.5 0.00 0.03 0.00 67 1008.5
20260508005010 47 225 1.7 3.5 0.00 0.03 0.00 64 1008.5
20260508004523 48 243 1.7 3.5 0.00 0.03 0.00 66 1008.3
20260508004007 48 243 0.9 2.6 0.00 0.04 0.00 61 1008.2
20260508003510 48 265 0.9 2.6 0.00 0.04 0.00 58 1008.1
20260508003022 49 238 0.9 2.6 0.00 0.05 0.00 58 1008.0
20260508002508 49 273 1.7 3.5 0.00 0.05 0.00 56 1008.0
20260508002011 50 232 0.9 3.5 0.00 0.05 0.00 53 1008.0
20260508001529 50 193 0.9 2.6 0.00 0.05 0.00 56 1008.0
20260508001007 51 153 0.9 2.6 0.00 0.05 0.00 51 1008.0
20260508000505 51 196 0.0 2.6 0.00 0.06 0.00 49 1008.0
20260508000018 51 282 1.7 2.6 0.00 0.06 0.00 53 1008.0
20260507235509 52 265 0.0 2.6 0.00 0.07 0.00 43 1008.0
20260507235008 52 51 0.9 3.5 0.00 0.08 0.00 43 1007.9
20260507234519 53 254 0.9 5.2 0.00 0.09 0.00 45 1007.8